Wind_Speed
22 18 16 15 10 10 8 6 6 10 12 8 7 8 10 9 10 9 10 10 9 7
22 20 17 14 14 12 8 6 6 8 10 8 7 8 8 8 9 10 10 10 10 10
24 22 20 16 15 11 9 9 7 8 9 9 9 9 9 8 9 9 10 9 7 9
25 23 21 19 16 13 11 11 10 10 10 10 10 10 10 9 6 9 8 8 8 10
24 23 22 20 18 15 14 13 13 12 11 11 11 9 10 10 8 7 8 7 6 6
25 24 23 21 20 17 16 15 14 13 14 14 14 11 10 8 8 8 8 8 7 6
26 26 24 22 21 19 18 16 15 14 15 15 14 13 11 10 9 8 9 8 7 6
28 25 23 23 22 20 19 17 14 13 14 16 15 15 15 13 11 10 9 9 7 5
26 25 25 24 24 21 19 17 15 13 13 16 16 18 20 14 11 12 11 10 9 7
26 26 25 24 24 23 21 20 18 15 15 17 18 20 19 17 11 12 14 12 12 9
26 26 25 25 25 24 23 23 21 18 17 17 17 19 20 18 14 13 14 14 13 10
27 27 27 27 26 25 24 22 22 20 19 18 16 18 20 20 15 15 16 15 14 12
27 28 28 28 27 26 24 23 22 22 21 20 18 19 23 23 19 16 16 15 14 18
27 28 27 27 26 26 25 23 23 23 22 22 22 19 24 26 21 17 17 16 16 14
Wind_Direction
206 208 214 210 209 215 234 226 203 210 203 207 209 211 214 218 216 222 229 230 237 250
201 206 213 216 214 224 226 222 208 208 209 212 207 203 207 210 215 221 227 225 233 244
200 202 205 212 218 218 212 206 205 198 201 204 203 204 205 211 216 214 217 224 225 252
199 200 201 209 218 216 210 204 206 200 198 209 206 202 203 212 211 213 219 227 227 240
199 200 200 204 208 209 207 207 204 202 200 201 204 202 206 210 216 211 221 213 218 229
197 198 200 195 199 203 205 208 206 204 207 206 207 204 208 214 216 215 213 225 218 199
192 195 195 192 191 195 202 205 206 208 208 208 206 205 208 210 216 215 212 211 191 188
189 190 186 188 187 193 197 204 206 204 206 201 200 205 210 209 213 212 209 196 194 188
182 184 183 185 182 188 193 198 197 196 186 189 199 210 211 206 213 205 201 195 198 197
183 185 184 184 184 186 191 194 197 195 188 191 203 216 215 217 214 207 200 197 202 190
187 188 187 185 187 184 189 195 195 197 200 201 211 219 221 221 215 214 205 202 205 195
188 188 187 188 188 188 189 195 199 199 200 203 210 221 215 213 214 218 214 208 208 203
189 190 188 188 186 188 191 196 198 201 204 206 209 217 211 210 214 215 216 214 213 212
192 192 189 187 184 185 191 196 199 200 205 209 211 217 216 212 215 219 218 218 217 221
Height
812 815 819 820 820 824 825 827 829 829 831 834 836 838 840 842 844 846 847 848 848 848
807 811 814 817 819 821 824 825 826 828 830 832 834 836 838 840 842 843 844 845 847 847
801 806 811 815 817 818 821 823 824 826 828 831 833 834 836 838 840 841 842 843 845 844
796 800 805 810 814 817 819 821 822 824 826 829 831 832 834 836 837 839 841 842 841 840
792 796 800 804 809 814 816 818 820 821 824 826 829 830 832 834 835 837 839 839 840 840
787 791 795 799 804 810 813 815 817 819 821 823 826 828 830 832 833 835 835 835 836 837
780 786 791 795 800 805 809 812 814 815 818 819 822 825 827 829 831 832 832 832 834 834
774 781 786 792 796 801 805 809 811 812 814 816 819 822 824 826 828 829 830 831 831 832
770 777 782 788 792 797 801 805 808 809 811 813 816 818 820 823 825 827 829 830 831 830
766 772 778 783 788 792 797 802 804 806 808 810 813 815 817 820 823 825 825 827 829 829
761 767 773 778 783 788 793 797 800 802 805 807 809 812 815 818 821 823 823 825 826 827
755 761 767 772 777 782 787 792 796 798 801 804 806 808 811 814 818 820 821 822 823 824
749 755 759 766 771 777 782 787 791 794 797 799 802 804 806 810 814 815 817 819 820 821
743 749 755 761 766 772 777 782 786 789 792 795 797 800 802 805 809 810 814 814 816 818